Location: Proctor
(47.8934°N, 114.3048°W)
Time: 13:26:33
(UTC+00:00)

BlueWalker 3 - Visible Passes

Search period start: 02 December 2022 00:00
Search period end: 12 December 2022 00:00
Orbit: 500 x 519 km, 53.2° (Epoch: 01 December)

Date Brightness Start Highest point End Pass type
(mag) Time Alt. Az. Time Alt. Az. Time Alt. Az.
02 Dec 2.8 01:49:57 10° WNW 01:53:37 36° N 01:53:45 36° N visible
03 Dec 2.8 01:31:36 10° WNW 01:35:16 37° N 01:36:06 32° NNE visible
03 Dec 5.0 03:10:29 10° WNW 03:10:55 13° WNW 03:10:55 13° WNW visible
04 Dec 2.8 01:13:14 10° WNW 01:16:54 37° N 01:18:28 26° NE visible
04 Dec 4.5 02:52:06 10° WNW 02:53:17 19° WNW 02:53:17 19° WNW visible
05 Dec 2.8 00:54:51 10° WNW 00:58:32 37° N 01:00:52 19° ENE visible
05 Dec 3.8 02:33:42 10° WNW 02:35:42 28° NW 02:35:42 28° NW visible
06 Dec 2.7 00:36:28 10° WNW 00:40:09 37° N 00:43:19 13° ENE visible
06 Dec 2.8 02:15:19 10° WNW 02:18:09 45° NW 02:18:09 45° NW visible
07 Dec 2.7 00:18:06 10° WNW 00:21:46 37° N 00:25:26 10° ENE visible
07 Dec 1.9 01:56:55 10° WNW 02:00:41 75° N 02:00:41 75° N visible
08 Dec 1.8 01:38:29 10° WNW 01:42:25 80° NNE 01:43:20 51° ESE visible
08 Dec 5.2 03:17:39 10° W 03:18:11 13° W 03:18:11 13° W visible
09 Dec 1.8 01:20:04 10° WNW 01:24:00 83° NNE 01:26:06 26° ESE visible
09 Dec 4.6 02:59:17 10° W 03:00:58 18° WSW 03:00:58 18° WSW visible
10 Dec 1.9 01:01:39 10° WNW 01:05:35 86° NNE 01:09:05 13° ESE visible
10 Dec 4.3 02:40:55 10° W 02:43:51 20° SW 02:43:57 20° SW visible
11 Dec 1.9 00:43:13 10° WNW 00:47:09 90° NNW 00:51:03 10° ESE visible
11 Dec 4.4 02:22:34 10° W 02:25:24 19° SW 02:27:13 14° SSW visible
